Regional Weather Roundup
Issued by NWS Sterling, VA

Home | Current Version | Previous Version | Text Only | Print | Product List | Glossary Off
Versions: 1 2 3 4 5 6 7 8 9 10 11 12 13 14 15 16 17 18 19 20 21 22 23 24 25 26 27 28 29 30 31 32 33 34 35 36 37 38 39 40 41 42 43 44 45 46 47 48 49 50

000
ASUS41 KLWX 202110
RWRLWX

REGIONAL WEATHER ROUNDUP
NATIONAL WEATHER SERVICE BALTIMORE MD/WASHINGTON DC
400 PM EST SAT DEC 20 2014

Note: "FAIR" indicates few or no clouds below 12,000 feet
with no significant weather and/or obstructions to visibility.
 TC=TEMPERATURE CELSIUS

 * =Non NWS site. Station does not report precipitation (e.g. rain,
    snow, etc.), thunder, or fog.

DCZ001-MDZ009-015-VAZ040>042-051-053>054-202200-
WASHINGTON METRO

CITY           SKY/WX    TMP DP  RH WIND       PRES   REMARKS
WASHINGTON NAT CLOUDY    39  20  46 VRB3      30.28R
DULLES         MOCLDY    34  20  56 CALM      30.26R
ANDREWS AFB    MOCLDY    36  21  53 W3        30.25R
FT BELVOIR     MOCLDY    37  21  53 CALM      30.28R
QUANTICO       CLOUDY    36  22  56 CALM      30.29S
COLLEGE PARK*  CLOUDY    37  23  56 CALM      30.26S
LEESBURG*      CLOUDY    36  27  69 CALM      30.27R
MANASSAS*      CLOUDY    36  23  60 CALM      30.27R
GAITHERSBURG*  MOCLDY    34  19  55 CALM      30.28R

$$

MDZ006>007-011-014-202200-
BALTIMORE METRO

CITY           SKY/WX    TMP DP  RH WIND       PRES   REMARKS
BWI AIRPORT    MOCLDY    36  21  54 CALM      30.26R
MD SCIENCE CTR   N/A     38  21  50 MISG      30.26S
MARTIN STATE   PTCLDY    36  27  69 SE5       30.28S
ANNAPOLIS      PTCLDY    36  23  59 NE6       30.28R
FORT MEADE*    PTCLDY    36  23  60 CALM      30.29R

$$

MDZ012-015-019>023-202200-
MARYLAND EASTERN SHORE

CITY           SKY/WX    TMP DP  RH WIND       PRES   REMARKS
OCEAN CITY     MOCLDY    37  25  61 CALM      30.27R
SALISBURY      CLOUDY    39  24  55 W3        30.27R
CAMBRIDGE*     MOCLDY    37  27  65 CALM      30.27S
EASTON*        MOCLDY    37  27  65 W3        30.30S

$$

MDZ017>025-202200-
SOUTHERN MARYLAND

CITY           SKY/WX    TMP DP  RH WIND       PRES   REMARKS
PATUXENT RIVER CLOUDY    36  23  59 NW3       30.27S
ST INIGOES     CLOUDY    36  22  56 W5        30.27S
LEONARDTOWN*   CLOUDY    34  23  64 SW3       30.29R

$$

MDZ003>005-202200-
NORTH CENTRAL MARYLAND

CITY           SKY/WX    TMP DP  RH WIND       PRES   REMARKS
FREDERICK*     CLEAR     37  19  48 CALM      30.29R
HAGERSTOWN APT MOCLDY    33  20  58 CALM      30.24R
WESTMINSTER*   MOCLDY    34  21  60 W3        30.23R

$$

MDZ501>502-202200-
WESTERN MARYLAND

CITY           SKY/WX    TMP DP  RH WIND       PRES   REMARKS
OAKLAND*       CLOUDY    28  27  93 CALM      30.11R
CUMBERLAND*    PTCLDY    34  21  60 CALM      30.26R

$$

VAZ025>031-202200-
SHENANDOAH VALLEY

CITY           SKY/WX    TMP DP  RH WIND       PRES   REMARKS
WINCHESTER*    CLOUDY    34  19  55 SE3       30.23S
FRONT ROYAL*   CLOUDY    34  25  69 CALM      30.22R
LURAY*         CLOUDY    36  28  75 CALM      30.21R
NEW MARKET*    CLOUDY    34  24  67 CALM      30.21R
STAUNTON*      CLOUDY    36  25  64 CALM      30.21R
WAYNESBORO*    CLOUDY    35  25  66 E6        30.18R

$$

WVZ021-048>050-054>055-202200-
EASTERN WEST VIRGINIA PANHANDLE

CITY           SKY/WX    TMP DP  RH WIND       PRES   REMARKS
MARTINSBURG    CLOUDY    35  19  52 E3        30.24R
PETERSBURG*    CLOUDY    35  22  58 CALM      30.22R

$$

VAZ036>039-050-202200-
CENTRAL FOOTHILLS

CITY           SKY/WX    TMP DP  RH WIND       PRES   REMARKS
CHARLOTTESVILL CLOUDY    37  24  59 S3        30.23R
CULPEPER*      CLOUDY    37  27  65 CALM      30.26S
ORANGE*        CLOUDY    36  27  69 CALM      30.26S
GORDONSVILLE*  CLOUDY    36  24  63 CALM      30.24R
WARRENTON*     CLOUDY    37  29  74 CALM      30.25R

$$

VAZ055>057-202200-
NORTH AND CENTRAL PIEDMONT

CITY           SKY/WX    TMP DP  RH WIND       PRES   REMARKS
FREDERICKSBRG* CLOUDY    37  25  60 CALM      30.27R
STAFFORD*      CLOUDY    35  22  58 E3        30.31R

$$

NCZ024-NYZ072-PAZ021-071-VAZ022-071-202200-
OTHER REGIONAL OBSERVATIONS

CITY           SKY/WX    TMP DP  RH WIND       PRES   REMARKS
NEW YORK CITY  CLOUDY    33  19  56 VRB3      30.28R
PHILADELPHIA   CLOUDY    35  21  56 NW5       30.28R
PITTSBURGH     PTCLDY    31  20  63 W6        30.22S
ROANOKE        FLURRIES  38  25  59 S3        30.22R
RICHMOND       MOCLDY    39  20  46 CALM      30.26S
RALEIGH        CLOUDY    38  33  82 CALM      30.25S FOG

$$

ANZ530>537-202200-
MARINE OBSERVATIONS

STATION/POSITION TIME  TEMP    WIND        PRES
                       AIR SEA DIR/SP/G
                 (UTC) (F)     (DEG/KT/KT) (MB)
THOMAS PT LIGHT  2100   35 41  140/  1/  2 1026.3R
BALT KEY BRIDGE  2100   37      CALM  /  1 1024.8R
COVE POINT       2100   34      30/  1/  2 1025.0R
LEWISETTA        2100   36 41  360/  4/  5 1024.8S
SOLOMONS ISLAND  2100      43                N/A

$$




USA.gov is the U.S. government's official web portal to all federal, state and local government web resources and services.